Location: Spor
(46.2167°N, 11.0500°E)
Time: 11:41:41
(UTC+00:00)

STARLINK-31 - Pass Details

Date: 07 June 2020
Orbit: 426 x 435 km, 53.0° (Epoch: 11 July)

Event Time Altitude Azimuth Distance (km) Brightness Sun altitude
Exits shadow 00:37:14 - 118° (ESE) 1,797 6.2 -18.5°
Enters shadow 01:34:30 -70° 238° (WSW) 12,459 10.4 -14.1°
Maximum altitude 02:12:45 46° 142° (SE) 576 3.6 -10.1°
